WetterOnline ( https://www.wetteronline.ch )

Wetter aktuell Mühldorf

Aktuelles Wetter: Mühldorf am Inn (410m)

6-stündlich | Neueste Meldungen
Ortszeit Temperatur Wetter
So, 25.08. 20:00 19.6° C leicht bewölkt
So, 25.08. 14:00 25.7° C leicht bewölkt
So, 25.08. 8:00 17.9° C fast wolkenlos
So, 25.08. 2:00 16.4° C wolkig
Sa, 24.08. 20:00 23.2° C wolkig
Sa, 24.08. 14:00 25.5° C leicht bewölkt
Sa, 24.08. 8:00 15.4° C leicht bewölkt
Sa, 24.08. 2:00 18.3° C bewölkt
Ortszeit Temperatur Wetter
So, 25.08. 21:30 18.4° C wolkig
So, 25.08. 21:20 18.4° C wolkig
So, 25.08. 21:10 18.2° C leicht bewölkt
So, 25.08. 21:00 18.1° C leicht bewölkt
So, 25.08. 20:50 18.1° C leicht bewölkt
So, 25.08. 20:40 18.4° C leicht bewölkt
So, 25.08. 20:30 18.9° C wolkig
So, 25.08. 20:00 19.6° C leicht bewölkt
So, 25.08. 19:30 19.9° C leicht bewölkt
So, 25.08. 19:00 20.1° C wolkig
So, 25.08. 18:30 20.4° C wolkig
So, 25.08. 18:00 21.6° C leichter Regen
Ortszeit Relative Feuchte Sichtweite
So, 25.08. 20:00 98% 4.7 km
So, 25.08. 14:00 59% 18 km
So, 25.08. 8:00 84% 12 km
So, 25.08. 2:00 93% 14 km
Sa, 24.08. 20:00 81% 9 km
Sa, 24.08. 14:00 54% 20 km
Sa, 24.08. 8:00 94% 5.0 km
Sa, 24.08. 2:00 82% 20 km
Ortszeit Relative Feuchte Sichtweite
So, 25.08. 21:30 99% 5.0 km
So, 25.08. 21:20 99% -
So, 25.08. 21:10 99% -
So, 25.08. 21:00 98% 3.0 km
So, 25.08. 20:50 98% -
So, 25.08. 20:40 98% -
So, 25.08. 20:30 98% 4.2 km
So, 25.08. 20:00 98% 4.7 km
So, 25.08. 19:30 96% 3.8 km
So, 25.08. 19:00 93% 8 km
So, 25.08. 18:30 92% 9 km
So, 25.08. 18:00 87% 14 km
Ortszeit Niederschlagsmenge Niederschlagsart
So, 25.08. 20:00 3 l/m2 in 12 Std. Regenschauer
So, 25.08. 14:00 0.0 l/m2 in 6 Std. -
So, 25.08. 8:00 0.0 l/m2 in 12 Std. -
So, 25.08. 2:00 0.0 l/m2 in 6 Std. -
Sa, 24.08. 20:00 0.0 l/m2 in 12 Std. -
Sa, 24.08. 14:00 0.0 l/m2 in 6 Std. -
Sa, 24.08. 8:00 0.0 l/m2 in 12 Std. -
Sa, 24.08. 2:00 0.0 l/m2 in 6 Std. -
Ortszeit Niederschlagsmenge Niederschlagsart
So, 25.08. 21:30 0.0 l/m2 in 1 Std. -
So, 25.08. 21:20 keine Meldung -
So, 25.08. 21:10 keine Meldung -
So, 25.08. 21:00 0.0 l/m2 in 1 Std. -
So, 25.08. 20:50 keine Meldung -
So, 25.08. 20:40 keine Meldung -
So, 25.08. 20:30 0.0 l/m2 in 1 Std. -
So, 25.08. 20:00 0.0 l/m2 in 1 Std. Regenschauer
So, 25.08. 19:30 0.0 l/m2 in 1 Std. -
So, 25.08. 19:00 0.1 l/m2 in 1 Std. Regen
So, 25.08. 18:30 0.1 l/m2 in 1 Std. Schneeregen
So, 25.08. 18:00 3.3 l/m2 in 1 Std. Regenschauer
Ortszeit Stärke Spitze Richtung
km/h Bft. km/h Grad Sektor
So, 25.08. 20:00 2 1 35 80° O
So, 25.08. 14:00 7 2 18 320° NW
So, 25.08. 8:00 0 0 7 - -
So, 25.08. 2:00 2 1 19 110° O
Sa, 24.08. 20:00 0 0 14 - -
Sa, 24.08. 14:00 6 1 15 50° NO
Sa, 24.08. 8:00 0 0 11 - -
Sa, 24.08. 2:00 6 1 15 90° O
Ortszeit Stärke Spitze Richtung
km/h Bft. km/h Grad Sektor
So, 25.08. 21:30 4 1 4 90° O
So, 25.08. 21:20 4 1 - 90° O
So, 25.08. 21:10 4 1 - 90° O
So, 25.08. 21:00 0 0 4 - -
So, 25.08. 20:50 2 1 - 350° N
So, 25.08. 20:40 4 1 - 290° W
So, 25.08. 20:30 2 1 4 80° O
So, 25.08. 20:00 2 1 6 80° O
So, 25.08. 19:30 4 1 4 50° NO
So, 25.08. 19:00 0 0 4 - -
So, 25.08. 18:30 4 1 4 20° N
So, 25.08. 18:00 4 1 36 290° W
Ortszeit Untergrenze Bedeckung Gattung
total tief tief mittel hoch
So, 25.08. 20:00 10500 m 6/8 0/8 - - -
So, 25.08. 14:00 9000 m 5/8 0/8 - - -
So, 25.08. 8:00 10500 m 1/8 0/8 - - -
So, 25.08. 2:00 9000 m 8/8 0/8 - - -
Sa, 24.08. 20:00 8400 m 8/8 0/8 - - -
Sa, 24.08. 14:00 5700 m 3/8 3/8 - - -
Sa, 24.08. 8:00 10500 m 3/8 0/8 - - -
Sa, 24.08. 2:00 4800 m 8/8 5/8 - - -
Ortszeit Bedeckungsgrad in Achtel und Wolkenuntergrenze
So, 25.08. 21:30 6(3600m)
So, 25.08. 21:20 6(3600m)
So, 25.08. 21:10 4(3600m)
So, 25.08. 21:00 3(10500m) 2(10500m)
So, 25.08. 20:50 3(10500m)
So, 25.08. 20:40 5(10500m)
So, 25.08. 20:30 7(10500m)
So, 25.08. 20:00 6(10500m)
So, 25.08. 19:30 2(1800m) 5(10500m)
So, 25.08. 19:00 1(1500m) 7(8100m)
So, 25.08. 18:30 3(2100m) 7(5400m) 7(6000m)
So, 25.08. 18:00 1(2100m) 3(2400m) 8(4200m)
Ortszeit Luftdruck NN (hPa) Tendenz (hPa in 3 Std.)
So, 25.08. 20:00 1019 + 1,2
So, 25.08. 14:00 1017 - 0,9
So, 25.08. 8:00 1019 + 0,6
So, 25.08. 2:00 1019 - 0,4
Sa, 24.08. 20:00 1017 - 0,1
Sa, 24.08. 14:00 1018 - 1,1
Sa, 24.08. 8:00 1021 - 0,1
Sa, 24.08. 2:00 1021 - 1,2
Ortszeit Luftdruck NN (hPa) Tendenz (hPa in 3 Std.)
So, 25.08. 21:30 1020 + 1,1
So, 25.08. 21:20 1020 keine Meldung
So, 25.08. 21:10 1020 keine Meldung
So, 25.08. 21:00 1019 + 0,9
So, 25.08. 20:50 1019 keine Meldung
So, 25.08. 20:40 1019 keine Meldung
So, 25.08. 20:30 1019 + 0,7
So, 25.08. 20:00 1019 + 1,2
So, 25.08. 19:30 1019 + 1,0
So, 25.08. 19:00 1018 + 0,8
So, 25.08. 18:30 1018 + 0,4
So, 25.08. 18:00 1018 + 0,1
Ortszeit Schneehöhe (cm)
So, 25.08. 20:00 -
So, 25.08. 14:00 -
So, 25.08. 8:00 -
So, 25.08. 2:00 -
Sa, 24.08. 20:00 -
Sa, 24.08. 14:00 -
Sa, 24.08. 8:00 -
Sa, 24.08. 2:00 -
Ortszeit Schneehöhe (cm)
So, 25.08. 21:30 -
So, 25.08. 21:20 -
So, 25.08. 21:10 -
So, 25.08. 21:00 -
So, 25.08. 20:50 -
So, 25.08. 20:40 -
So, 25.08. 20:30 -
So, 25.08. 20:00 -
So, 25.08. 19:30 -
So, 25.08. 19:00 -
So, 25.08. 18:30 -
So, 25.08. 18:00 -
Link zu dieser Seite / Seite empfehlen

Das Wetter in ...